BEL7EU ENBR-EBBR

Flight info

Callsign BEL7EU
Flight time 1h 18m
Altitude 37000
Route DCT VAMVO DCT
Aircraft A320/M-SDE3FGHIRWY/LB1

Departure

Time 2026-05-06 21:05
Airport Bergen Airport, Flesland (ENBR)

Arrival

Time 2026-05-06 22:23
Airport Brussels Airport (EBBR)
Time Latitude Longitude Altitude Speed Heading
2026-05-06 21:05 60.04754 5.22604 8142 ft 371 kts 184°
2026-05-06 21:05 60.02150 5.22441 8809 ft 377 kts 184°
2026-05-06 21:05 59.99511 5.22292 9569 ft 382 kts 184°
2026-05-06 21:06 59.96839 5.22120 10298 ft 386 kts 185°
2026-05-06 21:06 59.94143 5.21890 10985 ft 390 kts 186°
2026-05-06 21:06 59.91422 5.21629 11672 ft 394 kts 186°
2026-05-06 21:06 59.88674 5.21361 12357 ft 398 kts 187°
2026-05-06 21:07 59.85893 5.21093 13045 ft 402 kts 187°
2026-05-06 21:07 59.83088 5.20825 13724 ft 406 kts 188°
2026-05-06 21:07 59.80252 5.20557 14325 ft 410 kts 188°
2026-05-06 21:07 59.77394 5.20296 14873 ft 413 kts 188°
2026-05-06 21:08 59.74517 5.20045 15474 ft 415 kts 188°
2026-05-06 21:08 59.71619 5.19799 16033 ft 418 kts 188°
2026-05-06 21:08 59.68704 5.19549 16562 ft 421 kts 188°
2026-05-06 21:08 59.65762 5.19290 17073 ft 424 kts 188°
2026-05-06 21:09 59.62808 5.19028 17573 ft 427 kts 188°
2026-05-06 21:09 59.59823 5.18763 18062 ft 430 kts 189°
2026-05-06 21:09 59.56822 5.18497 18506 ft 434 kts 189°
2026-05-06 21:09 59.53797 5.18229 18913 ft 436 kts 189°
2026-05-06 21:10 59.50761 5.17958 19312 ft 438 kts 189°
2026-05-06 21:10 59.47713 5.17688 19672 ft 439 kts 189°
2026-05-06 21:10 59.44656 5.17418 20077 ft 440 kts 189°
2026-05-06 21:10 59.41593 5.17146 20436 ft 442 kts 189°
2026-05-06 21:11 59.38515 5.16878 20774 ft 444 kts 189°
2026-05-06 21:11 59.35419 5.16611 21092 ft 446 kts 189°
2026-05-06 21:11 59.32313 5.16347 21414 ft 448 kts 189°
2026-05-06 21:11 59.29192 5.16083 21724 ft 450 kts 189°
2026-05-06 21:12 59.26058 5.15816 22023 ft 452 kts 189°
2026-05-06 21:12 59.22906 5.15546 22318 ft 454 kts 189°
2026-05-06 21:12 59.19747 5.15274 22559 ft 456 kts 188°
2026-05-06 21:12 59.16577 5.14998 22834 ft 457 kts 188°
2026-05-06 21:13 59.13392 5.14716 23094 ft 459 kts 188°
2026-05-06 21:13 59.10198 5.14438 23329 ft 460 kts 188°
2026-05-06 21:13 59.06989 5.14168 23575 ft 462 kts 188°
2026-05-06 21:13 59.03774 5.13898 23756 ft 463 kts 188°
2026-05-06 21:14 59.00551 5.13624 23925 ft 464 kts 188°
2026-05-06 21:14 58.97321 5.13351 24081 ft 465 kts 188°
2026-05-06 21:14 58.94080 5.13076 24228 ft 466 kts 188°
2026-05-06 21:14 58.90838 5.12800 24325 ft 467 kts 187°
2026-05-06 21:15 58.87595 5.12525 24467 ft 467 kts 187°
2026-05-06 21:15 58.84343 5.12254 24594 ft 467 kts 187°
2026-05-06 21:15 58.81098 5.11986 24753 ft 467 kts 187°
2026-05-06 21:15 58.77855 5.11715 24916 ft 466 kts 187°
2026-05-06 21:16 58.74612 5.11442 25076 ft 466 kts 188°
2026-05-06 21:16 58.71377 5.11165 25242 ft 465 kts 188°
2026-05-06 21:16 58.68145 5.10886 25413 ft 465 kts 188°
2026-05-06 21:16 58.64911 5.10609 25590 ft 465 kts 188°
2026-05-06 21:17 58.61684 5.10341 25769 ft 464 kts 188°
2026-05-06 21:17 58.58455 5.10077 25955 ft 464 kts 188°
2026-05-06 21:17 58.55235 5.09815 26146 ft 463 kts 188°
2026-05-06 21:17 58.52012 5.09551 26340 ft 463 kts 188°
2026-05-06 21:18 58.48798 5.09286 26541 ft 462 kts 188°
2026-05-06 21:18 58.45587 5.09021 26740 ft 462 kts 188°
2026-05-06 21:18 58.42375 5.08756 26949 ft 461 kts 188°
2026-05-06 21:18 58.39171 5.08490 27159 ft 461 kts 188°
2026-05-06 21:19 58.35970 5.08226 27329 ft 461 kts 188°
2026-05-06 21:19 58.32767 5.07962 27546 ft 460 kts 188°
2026-05-06 21:19 58.29572 5.07698 27775 ft 459 kts 188°
2026-05-06 21:19 58.26377 5.07435 28001 ft 459 kts 188°
2026-05-06 21:20 58.23190 5.07176 28238 ft 459 kts 188°
2026-05-06 21:20 58.21079 5.07008 28391 ft 458 kts 188°
2026-05-06 21:20 58.16818 5.06673 28708 ft 458 kts 188°
2026-05-06 21:20 58.13639 5.06419 28951 ft 457 kts 188°
2026-05-06 21:21 58.10461 5.06160 29138 ft 458 kts 188°
2026-05-06 21:21 58.07275 5.05895 29294 ft 458 kts 188°
2026-05-06 21:21 58.04094 5.05630 29506 ft 458 kts 188°
2026-05-06 21:21 58.00913 5.05369 29734 ft 457 kts 188°
2026-05-06 21:22 57.97736 5.05112 29966 ft 457 kts 188°
2026-05-06 21:22 57.94558 5.04856 30191 ft 457 kts 188°
2026-05-06 21:22 57.91387 5.04605 30388 ft 456 kts 188°
2026-05-06 21:22 57.88212 5.04358 30574 ft 456 kts 188°
2026-05-06 21:23 57.85084 5.04113 30759 ft 456 kts 188°
2026-05-06 21:23 57.81871 5.03860 30918 ft 456 kts 188°
2026-05-06 21:23 57.78696 5.03609 31096 ft 457 kts 188°
2026-05-06 21:23 57.75565 5.03353 31277 ft 457 kts 188°
2026-05-06 21:24 57.72350 5.03094 31471 ft 457 kts 188°
2026-05-06 21:24 57.69217 5.02849 31660 ft 457 kts 188°
2026-05-06 21:24 57.66038 5.02600 31855 ft 457 kts 188°
2026-05-06 21:24 57.63892 5.02431 31989 ft 457 kts 188°
2026-05-06 21:25 57.59686 5.02098 32253 ft 457 kts 188°
2026-05-06 21:25 57.56513 5.01849 32454 ft 457 kts 188°
2026-05-06 21:25 57.53340 5.01605 32614 ft 457 kts 187°
2026-05-06 21:25 57.51195 5.01441 32753 ft 456 kts 187°
2026-05-06 21:26 57.48020 5.01193 32963 ft 456 kts 187°
2026-05-06 21:26 57.44851 5.00939 33165 ft 456 kts 187°
2026-05-06 21:26 57.40651 5.00605 33437 ft 456 kts 187°
2026-05-06 21:26 57.38551 5.00442 33575 ft 456 kts 187°
2026-05-06 21:27 57.35383 5.00198 33785 ft 456 kts 187°
2026-05-06 21:27 57.32212 4.99955 33997 ft 456 kts 187°
2026-05-06 21:27 57.29047 4.99711 34183 ft 455 kts 187°
2026-05-06 21:27 57.25883 4.99468 34341 ft 455 kts 187°
2026-05-06 21:28 57.22720 4.99229 34531 ft 454 kts 187°
2026-05-06 21:28 57.19564 4.98988 34716 ft 454 kts 187°
2026-05-06 21:28 57.16405 4.98744 34899 ft 454 kts 187°
2026-05-06 21:28 57.13250 4.98499 35084 ft 454 kts 187°
2026-05-06 21:29 57.10095 4.98251 35261 ft 454 kts 187°
2026-05-06 21:29 57.06933 4.98005 35429 ft 454 kts 186°
2026-05-06 21:29 57.03776 4.97763 35598 ft 454 kts 186°
2026-05-06 21:29 57.00619 4.97522 35737 ft 454 kts 186°
2026-05-06 21:30 56.97458 4.97284 35907 ft 454 kts 186°
2026-05-06 21:30 56.94302 4.97048 36068 ft 454 kts 186°
2026-05-06 21:30 56.91147 4.96808 36221 ft 454 kts 186°
2026-05-06 21:30 56.87986 4.96568 36372 ft 454 kts 186°
2026-05-06 21:31 56.84830 4.96326 36519 ft 454 kts 186°
2026-05-06 21:31 56.81672 4.96084 36667 ft 454 kts 186°
2026-05-06 21:31 56.78509 4.95850 36805 ft 455 kts 186°
2026-05-06 21:31 56.75351 4.95624 36968 ft 454 kts 186°
2026-05-06 21:32 56.72193 4.95401 37045 ft 455 kts 186°
2026-05-06 21:32 56.62703 4.94682 37070 ft 455 kts 186°
2026-05-06 21:33 56.56376 4.94189 37067 ft 455 kts 186°
2026-05-06 21:33 56.50049 4.93706 37067 ft 455 kts 186°
2026-05-06 21:34 56.43720 4.93248 37059 ft 455 kts 186°
2026-05-06 21:34 56.37388 4.92801 37072 ft 456 kts 186°
2026-05-06 21:35 56.31045 4.92335 37078 ft 456 kts 186°
2026-05-06 21:35 56.24701 4.91846 37084 ft 456 kts 186°
2026-05-06 21:36 56.18393 4.91385 37073 ft 457 kts 185°
2026-05-06 21:36 56.12045 4.90935 37086 ft 457 kts 186°
2026-05-06 21:37 56.05689 4.90469 37089 ft 457 kts 186°
2026-05-06 21:37 55.99338 4.90009 37088 ft 457 kts 185°
2026-05-06 21:38 55.92984 4.89573 37090 ft 457 kts 185°
2026-05-06 21:38 55.86627 4.89126 37090 ft 457 kts 186°
2026-05-06 21:39 55.80270 4.88649 37091 ft 457 kts 186°
2026-05-06 21:39 55.73913 4.88187 37089 ft 457 kts 185°
2026-05-06 21:40 55.67556 4.87742 37064 ft 457 kts 185°
2026-05-06 21:40 55.61202 4.87295 37077 ft 457 kts 185°
2026-05-06 21:41 55.54845 4.86855 37080 ft 457 kts 185°
2026-05-06 21:41 55.48487 4.86404 37082 ft 457 kts 185°
2026-05-06 21:42 55.42136 4.85953 37065 ft 457 kts 185°
2026-05-06 21:42 55.35784 4.85497 37077 ft 457 kts 185°
2026-05-06 21:43 55.29431 4.85053 37079 ft 457 kts 185°
2026-05-06 21:43 55.23077 4.84616 37078 ft 457 kts 185°
2026-05-06 21:44 55.16726 4.84179 37058 ft 457 kts 185°
2026-05-06 21:44 55.10373 4.83744 37073 ft 457 kts 185°
2026-05-06 21:45 55.04070 4.83314 37074 ft 457 kts 185°
2026-05-06 21:45 54.97720 4.82878 37073 ft 456 kts 185°
2026-05-06 21:46 54.91376 4.82433 37077 ft 456 kts 185°
2026-05-06 21:46 54.85031 4.81998 37065 ft 456 kts 185°
2026-05-06 21:47 54.78692 4.81578 37071 ft 456 kts 185°
2026-05-06 21:47 54.72357 4.81153 37067 ft 455 kts 185°
2026-05-06 21:48 54.66024 4.80721 37067 ft 455 kts 185°
2026-05-06 21:48 54.59694 4.80292 37064 ft 455 kts 185°
2026-05-06 21:49 54.53374 4.79857 37067 ft 455 kts 185°
2026-05-06 21:49 54.47053 4.79435 37068 ft 454 kts 185°
2026-05-06 21:50 54.40737 4.79027 37062 ft 454 kts 185°
2026-05-06 21:50 54.34420 4.78601 37054 ft 454 kts 185°
2026-05-06 21:51 54.28110 4.78181 37059 ft 454 kts 185°
2026-05-06 21:51 54.21798 4.77755 37058 ft 454 kts 185°
2026-05-06 21:52 54.15490 4.77342 37058 ft 454 kts 185°
2026-05-06 21:52 54.09183 4.76932 37050 ft 454 kts 185°
2026-05-06 21:53 54.02870 4.76519 37046 ft 454 kts 185°
2026-05-06 21:53 53.96563 4.76106 37051 ft 454 kts 185°
2026-05-06 21:54 53.90254 4.75692 37056 ft 454 kts 185°
2026-05-06 21:54 53.83988 4.75289 37045 ft 454 kts 185°
2026-05-06 21:55 53.77637 4.74882 37048 ft 454 kts 185°
2026-05-06 21:55 53.71323 4.74465 37043 ft 454 kts 185°
2026-05-06 21:56 53.65053 4.74058 37057 ft 454 kts 185°
2026-05-06 21:56 53.58736 4.73653 37046 ft 454 kts 185°
2026-05-06 21:57 53.52422 4.73244 37048 ft 454 kts 185°
2026-05-06 21:57 53.46108 4.72836 37056 ft 454 kts 185°
2026-05-06 21:58 53.39793 4.72437 37025 ft 454 kts 185°
2026-05-06 21:58 53.33477 4.72043 37034 ft 454 kts 185°
2026-05-06 21:59 53.27157 4.71645 37031 ft 454 kts 185°
2026-05-06 21:59 53.20845 4.71245 37030 ft 454 kts 185°
2026-05-06 22:00 53.14528 4.70844 37017 ft 454 kts 185°
2026-05-06 22:00 53.08213 4.70446 37023 ft 454 kts 185°
2026-05-06 22:01 53.01898 4.70048 37026 ft 454 kts 185°
2026-05-06 22:01 52.95580 4.69655 37025 ft 454 kts 184°
2026-05-06 22:02 52.89307 4.69274 37015 ft 454 kts 184°
2026-05-06 22:02 52.82985 4.68880 37018 ft 455 kts 184°
2026-05-06 22:03 52.76616 4.68487 37013 ft 455 kts 184°
2026-05-06 22:03 52.70329 4.68106 37015 ft 455 kts 184°
2026-05-06 22:04 52.67147 4.67912 36899 ft 448 kts 184°
2026-05-06 22:04 52.64091 4.67727 36345 ft 443 kts 184°
2026-05-06 22:04 52.60976 4.67539 35650 ft 441 kts 184°
2026-05-06 22:04 52.57953 4.67353 34958 ft 440 kts 184°
2026-05-06 22:05 52.54893 4.67160 34248 ft 440 kts 184°
2026-05-06 22:05 52.51834 4.66966 33451 ft 440 kts 184°
2026-05-06 22:05 52.48780 4.66777 32884 ft 438 kts 184°
2026-05-06 22:05 52.45691 4.66589 32104 ft 436 kts 184°
2026-05-06 22:06 52.42672 4.66408 31462 ft 432 kts 184°
2026-05-06 22:06 52.39724 4.66231 30863 ft 428 kts 184°
2026-05-06 22:06 52.36768 4.66055 30284 ft 423 kts 184°
2026-05-06 22:06 52.33817 4.65881 29105 ft 428 kts 184°
2026-05-06 22:07 52.30814 4.65698 27962 ft 434 kts 184°
2026-05-06 22:07 52.27801 4.65514 27121 ft 432 kts 184°
2026-05-06 22:07 52.24814 4.65333 26370 ft 428 kts 184°
2026-05-06 22:07 52.21853 4.65153 25666 ft 424 kts 184°
2026-05-06 22:08 52.18920 4.64978 24974 ft 420 kts 184°
2026-05-06 22:08 52.16018 4.64806 24334 ft 415 kts 184°
2026-05-06 22:08 52.13142 4.64636 23694 ft 411 kts 184°
2026-05-06 22:08 52.10249 4.64467 22967 ft 429 kts 184°
2026-05-06 22:09 52.07199 4.64279 22223 ft 444 kts 184°
2026-05-06 22:09 52.04107 4.64091 21501 ft 444 kts 184°
2026-05-06 22:09 52.01022 4.63905 20870 ft 443 kts 184°
2026-05-06 22:09 51.97947 4.63724 20372 ft 443 kts 184°
2026-05-06 22:10 51.94919 4.63547 19882 ft 440 kts 184°
2026-05-06 22:10 51.91880 4.63371 19544 ft 435 kts 184°
2026-05-06 22:10 51.88887 4.63194 19009 ft 428 kts 184°
2026-05-06 22:10 51.85926 4.63015 18249 ft 424 kts 184°
2026-05-06 22:11 51.82990 4.62836 17399 ft 420 kts 184°
2026-05-06 22:11 51.80081 4.62661 16627 ft 416 kts 184°
2026-05-06 22:11 51.77200 4.62492 15888 ft 413 kts 184°
2026-05-06 22:11 51.74339 4.62320 15177 ft 409 kts 184°
2026-05-06 22:12 51.71510 4.62151 14489 ft 406 kts 183°
2026-05-06 22:12 51.68696 4.61988 13814 ft 403 kts 183°
2026-05-06 22:12 51.65913 4.61829 13093 ft 398 kts 183°
2026-05-06 22:12 51.63162 4.61671 12419 ft 393 kts 183°
2026-05-06 22:13 51.60447 4.61512 11746 ft 388 kts 183°
2026-05-06 22:13 51.57767 4.61356 11070 ft 383 kts 182°
2026-05-06 22:13 51.55115 4.61201 10357 ft 379 kts 182°
2026-05-06 22:13 51.52492 4.61046 9586 ft 377 kts 182°
2026-05-06 22:14 51.50762 4.60942 9061 ft 374 kts 182°
2026-05-06 22:14 51.48171 4.60789 8268 ft 371 kts 182°
2026-05-06 22:14 51.45607 4.60641 7463 ft 368 kts 182°
2026-05-06 22:14 51.43059 4.60494 6633 ft 365 kts 182°
2026-05-06 22:15 51.40531 4.60347 5902 ft 360 kts 182°
2026-05-06 22:15 51.38110 4.60207 5791 ft 337 kts 182°
2026-05-06 22:15 51.35842 4.60076 5710 ft 316 kts 181°
2026-05-06 22:15 51.33713 4.59954 5638 ft 297 kts 182°
2026-05-06 22:16 51.31708 4.59838 5589 ft 280 kts 181°
2026-05-06 22:16 51.29821 4.59729 5517 ft 264 kts 181°
2026-05-06 22:16 51.28036 4.59630 5415 ft 250 kts 181°
2026-05-06 22:16 51.26318 4.59536 5315 ft 245 kts 181°
2026-05-06 22:17 51.24617 4.59439 5209 ft 245 kts 182°
2026-05-06 22:17 51.22915 4.59340 5027 ft 245 kts 182°
2026-05-06 22:17 51.21209 4.59240 4829 ft 245 kts 182°
2026-05-06 22:17 51.19509 4.59141 4674 ft 245 kts 182°
2026-05-06 22:18 51.17805 4.59040 4512 ft 245 kts 182°
2026-05-06 22:18 51.16106 4.58939 4355 ft 244 kts 181°
2026-05-06 22:18 51.14409 4.58841 4198 ft 244 kts 181°
2026-05-06 22:18 51.12717 4.58725 4040 ft 241 kts 184°
2026-05-06 22:19 51.11095 4.58316 3892 ft 232 kts 192°
2026-05-06 22:19 51.09566 4.57709 3815 ft 221 kts 194°
2026-05-06 22:19 51.08122 4.57107 3664 ft 210 kts 194°
2026-05-06 22:19 51.06719 4.56527 3378 ft 206 kts 193°
2026-05-06 22:20 51.05348 4.55962 3104 ft 201 kts 193°
2026-05-06 22:20 51.04004 4.55410 2809 ft 198 kts 193°
2026-05-06 22:20 51.02686 4.54868 2542 ft 194 kts 192°
2026-05-06 22:20 51.01402 4.54341 2278 ft 192 kts 192°
2026-05-06 22:21 51.00121 4.53816 2019 ft 189 kts 192°
2026-05-06 22:21 50.98855 4.53297 1762 ft 187 kts 191°
2026-05-06 22:21 50.97622 4.52791 1498 ft 178 kts 191°
2026-05-06 22:21 50.96465 4.52316 1261 ft 166 kts 191°
2026-05-06 22:22 50.95381 4.51873 1035 ft 156 kts 192°
2026-05-06 22:22 50.94357 4.51454 821 ft 149 kts 193°
2026-05-06 22:22 50.93363 4.51047 617 ft 146 kts 194°
2026-05-06 22:22 50.92385 4.50650 422 ft 144 kts 195°
2026-05-06 22:23 50.91418 4.50255 221 ft 143 kts 196°
2026-05-06 22:23 50.90478 4.49872 128 ft 129 kts 194°
2026-05-06 22:23 50.89753 4.49572 148 ft 83 kts 194°
2026-05-06 22:23 50.89366 4.49416 171 ft 36 kts 194°
2026-05-06 22:24 50.89246 4.49349 175 ft 12 kts 224°
2026-05-06 22:24 50.89268 4.49236 172 ft 14 kts 310°
2026-05-06 22:24 50.89339 4.49114 167 ft 14 kts 330°
2026-05-06 22:24 50.89456 4.49143 162 ft 21 kts 13°
2026-05-06 22:25 50.89586 4.49183 156 ft 16 kts 349°
2026-05-06 22:25 50.89715 4.49172 148 ft 25 kts 16°
2026-05-06 22:25 50.89922 4.49256 136 ft 34 kts 14°
2026-05-06 22:25 50.90160 4.49353 126 ft 36 kts 14°
2026-05-06 22:26 50.90368 4.49440 122 ft 18 kts 13°
2026-05-06 22:26 50.90415 4.49386 122 ft 15 kts 272°